Flag Weather past 2 weeks in New Bedford, Massachusetts, U.S.A.

Now
42 °F

Light rain. Mostly cloudy.


Feels Like: 32 °F
Forecast: 32 / 39 °F
Wind: 28 mph from Northeast

Location: New Bedford Regional Airport

Current Time: Nov 26, 2014 at 7:21:29 PM

Latest Report: Nov 26, 2014 at 6:53 PM


Visibility: 8 mi

Pressure: 29.65 "Hg

Humidity: 92%

Dew point: 40 °F

Location of New BedfordLocation

Historic Weather in New Bedford — Graph

°F

New Bedford temperature yesterday

Maximum temperature yesterday: 63 °F (at 9:53 AM)
Minimum temperature yesterday: 47 °F (at 10:53 PM)
Average temperature yesterday: 57 °F

Past Weeks' High & Low Weather Summary

 TemperatureHumidityPressure
High64 °F (Nov 24, 2:53 PM)100% (Nov 11, 6:53 PM)30.45 "Hg (Nov 11, 6:53 PM)
Low20 °F (Nov 16, 3:53 AM)29% (Nov 25, 3:53 PM)29.42 "Hg (Nov 17, 10:53 PM)
Average42 °F70%30.01 "Hg
* Reported Nov 11 5:53 PM — Nov 26 5:53 PM, New Bedford, Weather by CustomWeather, © 2014

Note: Actual official high and low records may vary slightly from our data, if they occured in-between our weather recording intervals... More about our weather records

Advertising

New Bedford weather history for previous 24 hours

 ConditionsComfort  
Time TempWeatherWind HumidityBarometerVisibility
5:53 PM
Nov 26
42 °FRain. Fog.22 mph92%29.71 "Hg4 mi
4:53 PM41 °FRain. Fog.17 mph96%29.80 "Hg5 mi
3:53 PM39 °FStrong thunderstorms. Fog.28 mph96%29.81 "Hg3 mi
2:53 PM39 °FRain. Fog.13 mph96%29.92 "Hg3 mi
1:53 PM39 °FLight rain. Fog.9 mph100%29.97 "Hg3 mi
12:53 PM40 °FLight rain. Fog.10 mph97%29.98 "Hg3 mi
12:00 PM41 °FRain. Fog.9 mph96%30.06 "Hg3 mi
11:04 AM41 °FLight rain. Fog.8 mph93%30.10 "Hg4 mi
10:53 AM40 °FRain. Fog.7 mph97%30.10 "Hg2 mi
9:53 AM41 °FLight rain. Overcast.7 mph86%30.14 "Hg10 mi
8:53 AM44 °FLight rain. Overcast.3 mph71%30.17 "Hg10 mi
7:53 AM44 °FOvercast.3 mph65%30.14 "Hg10 mi
6:53 AM46 °FMostly cloudy.3 mph54%30.14 "Hg10 mi
5:53 AM46 °FOvercast.5 mph54%30.14 "Hg10 mi
4:53 AM47 °FOvercast.6 mph50%30.16 "Hg10 mi
3:53 AM47 °FOvercast.No wind52%30.18 "Hg10 mi
2:53 AM47 °FPassing clouds.3 mph54%30.16 "Hg10 mi
1:53 AM47 °FClear.5 mph54%30.15 "Hg10 mi
12:53 AM48 °FClear.No wind52%30.12 "Hg10 mi
11:53 PM
Nov 25
48 °FClear.3 mph52%30.12 "Hg10 mi
10:53 PM47 °FClear.6 mph56%30.10 "Hg10 mi
9:53 PM49 °FClear.3 mph48%30.08 "Hg10 mi
8:53 PM50 °FClear.6 mph46%30.06 "Hg10 mi
7:53 PM50 °FClear.8 mph46%30.03 "Hg10 mi
Weather by CustomWeather, © 2014

See weather overviewHow to use our weather pages